Hourly Data Report for March 05, 2019

TORONTO CITY
ONTARIO
Current Station Operator: ECCC - MSC

43°40'00.000" N
79°24'00.000" W
112.50 m
6158355
71508
XTO

Download Data

Hourly Data (March 2019)
Hourly Data Report for March 5, 2019
TIME
LST
Temp Definition
°C
Dew Point Definition
°C
Rel Hum Definition
%
Precip. Amount Definition
mm

Wind Dir Definition
10's deg

Wind Spd Definition
km/h
Visibility Definition
km
Stn Press Definition
kPa
Hmdx Definition


Wind Chill Definition


Weather Definition


00:00 -11.3 -17.0 62 0.0 LegendMM LegendMM   100.23     LegendNANA
01:00 -11.8 -19.1 54 0.0 LegendMM LegendMM   100.23     LegendNANA
02:00 -12.4 -19.2 57 0.0 LegendMM LegendMM   100.23     LegendNANA
03:00 -12.7 -19.1 59 0.0 LegendMM LegendMM   100.21     LegendNANA
04:00 -12.7 -18.7 61 0.0 LegendMM LegendMM   100.17     LegendNANA
05:00 -12.9 -18.3 64 0.0 LegendMM LegendMM   100.18     LegendNANA
06:00 -12.7 -18.2 63 0.0 LegendMM LegendMM   100.17     LegendNANA
07:00 -12.2 -17.4 65 0.0 LegendMM LegendMM   100.12     LegendNANA
08:00 -11.3 -16.9 63 0.0 LegendMM LegendMM   100.05     LegendNANA
09:00 -10.6 -15.7 66 0.0 LegendMM LegendMM   100.06     LegendNANA
10:00 -9.3 -15.5 61 0.0 LegendMM LegendMM   100.01     LegendNANA
11:00 -9.0 -14.9 62 0.0 LegendMM LegendMM   99.97     LegendNANA
12:00 -8.6 -13.5 68 0.0 LegendMM LegendMM   99.96     LegendNANA
13:00 -8.3 -14.2 63 0.0 LegendMM LegendMM   99.91     LegendNANA
14:00 -7.7 -14.9 56 0.0 LegendMM LegendMM   99.90     LegendNANA
15:00 -7.9 -16.2 51 0.0 LegendMM LegendMM   99.96     LegendNANA
16:00 -8.1 -17.2 48 0.0 LegendMM LegendMM   100.00     LegendNANA
17:00 -8.6 -14.3 63 0.2 LegendMM LegendMM   100.05     LegendNANA
18:00 -9.1 -19.2 44 0.0 LegendMM LegendMM   100.11     LegendNANA
19:00 -9.4 -19.0 46 0.0 LegendMM LegendMM   100.22     LegendNANA
20:00 -10.0 -18.2 51 0.0 LegendMM LegendMM   100.25     LegendNANA
21:00 -10.5 -17.9 55 0.0 LegendMM LegendMM   100.28     LegendNANA
22:00 -10.3 -17.2 57 0.0 LegendMM LegendMM   100.30     LegendNANA
23:00 -10.5 -16.9 59 0.0 LegendMM LegendMM   100.28     LegendNANA

Notes on Data Quality.

Legend

  • E = Estimated
  • M = Missing
  • NA = Not Available*
  • [empty] = Indicates an unobserved value
Date modified: